TimeHST,TemperatureF,Dew PointF,Humidity,Sea Level PressureIn,VisibilityMPH,Wind Direction,Wind SpeedMPH,Gust SpeedMPH,PrecipitationIn,Events,Conditions,WindDirDegrees,DateUTC
12:53 AM,71.1,61.0,70,29.95,10.0,ENE,6.9,-,N/A,,Clear,60,2013-11-25 10:53:00
1:53 AM,70.0,61.0,73,29.94,10.0,NNE,4.6,-,N/A,,Clear,20,2013-11-25 11:53:00
2:53 AM,73.0,57.0,57,29.94,10.0,Calm,Calm,-,N/A,,Clear,0,2013-11-25 12:53:00
3:53 AM,71.1,61.0,70,29.93,10.0,SE,4.6,-,N/A,,Clear,130,2013-11-25 13:53:00
4:53 AM,71.1,61.0,70,29.94,10.0,SE,9.2,-,N/A,,Clear,130,2013-11-25 14:53:00
5:53 AM,72.0,62.1,71,29.96,10.0,ESE,9.2,-,N/A,,Clear,110,2013-11-25 15:53:00
6:53 AM,71.1,59.0,66,29.98,10.0,NE,4.6,-,N/A,,Clear,40,2013-11-25 16:53:00
7:53 AM,75.0,59.0,57,29.99,10.0,Calm,Calm,-,N/A,,Clear,0,2013-11-25 17:53:00
8:53 AM,79.0,62.1,56,30.00,10.0,SSW,6.9,-,N/A,,Clear,210,2013-11-25 18:53:00
9:53 AM,81.0,62.1,52,30.01,10.0,South,6.9,-,N/A,,Clear,190,2013-11-25 19:53:00
10:53 AM,81.0,64.0,56,30.00,10.0,SSW,8.1,-,N/A,,Clear,210,2013-11-25 20:53:00
11:53 AM,81.0,64.9,58,29.97,10.0,WSW,9.2,-,N/A,,Clear,240,2013-11-25 21:53:00
12:53 PM,81.0,64.0,56,29.95,10.0,WSW,6.9,-,N/A,,Clear,250,2013-11-25 22:53:00
1:53 PM,81.0,62.1,52,29.94,10.0,West,6.9,-,N/A,,Clear,260,2013-11-25 23:53:00
2:53 PM,81.0,64.0,56,29.93,10.0,WSW,6.9,-,N/A,,Clear,240,2013-11-26 00:53:00
3:53 PM,82.0,64.0,54,29.92,10.0,SW,5.8,-,N/A,,Clear,220,2013-11-26 01:53:00
4:53 PM,81.0,64.0,56,29.93,10.0,SSW,3.5,-,N/A,,Clear,210,2013-11-26 02:53:00
5:53 PM,79.0,64.9,62,29.95,10.0,SSW,4.6,-,N/A,,Clear,210,2013-11-26 03:53:00
6:53 PM,79.0,64.0,60,29.98,10.0,South,5.8,-,N/A,,Clear,170,2013-11-26 04:53:00
7:53 PM,75.9,61.0,60,30.00,10.0,SE,5.8,-,N/A,,Clear,130,2013-11-26 05:53:00
8:53 PM,75.9,60.1,58,30.02,10.0,SE,9.2,-,N/A,,Clear,140,2013-11-26 06:53:00
9:53 PM,75.0,59.0,57,30.02,10.0,SE,6.9,-,N/A,,Clear,140,2013-11-26 07:53:00
10:53 PM,75.0,59.0,57,30.04,10.0,Calm,Calm,-,N/A,,Clear,0,2013-11-26 08:53:00
11:53 PM,73.9,57.9,57,30.04,10.0,SE,3.5,-,N/A,,Clear,140,2013-11-26 09:53:00